EW9119 Weather Reports


Display with metric or nautical units.
time (UTC)temp
F
wind
direction
speed
MPH
gust
MPH
rain 1hr
in
rain 24hr
in
rain mn
in
humidity
%
barometer
mb
20260509083055 52 165 0.0 0.0 0.00 0.00 0.00 50 1011.0
20260509081553 52 165 0.0 0.0 0.00 0.00 0.00 49 1011.2
20260509080051 52 165 0.0 0.0 0.00 0.00 0.00 54 1011.1
20260509074559 53 165 0.0 0.0 0.00 0.00 0.00 56 1010.9
20260509073048 53 165 0.0 0.0 0.00 0.00 0.00 57 1010.9
20260509071547 53 165 0.0 0.0 0.00 0.00 0.00 58 1011.1
20260509070045 54 165 0.0 0.0 0.00 0.00 0.00 58 1011.2
20260509064557 54 165 0.0 0.0 0.00 0.00 0.00 58 1011.4
20260509063045 54 165 0.0 0.0 0.00 0.00 0.00 60 1011.6
20260509061543 54 166 0.0 0.0 0.00 0.00 0.00 61 1011.9
20260509060037 54 168 0.0 0.0 0.00 0.00 0.00 55 1012.0
20260509054536 54 168 0.0 0.0 0.00 0.00 0.00 62 1012.2
20260509053032 53 168 0.0 0.0 0.00 0.00 0.00 59 1012.5
20260509051534 53 180 0.0 0.0 0.00 0.00 0.00 58 1012.6
20260509050028 53 182 0.0 0.0 0.00 0.00 0.00 55 1012.7
20260509044526 53 87 0.0 0.0 0.00 0.00 0.00 56 1012.8
20260509043024 53 87 0.0 0.0 0.00 0.00 0.00 57 1012.8
20260509041523 53 87 0.0 0.0 0.00 0.00 0.00 58 1012.8
20260509040021 52 87 0.0 0.0 0.00 0.00 0.00 60 1012.8
20260509034537 52 87 0.0 0.0 0.00 0.00 0.00 61 1012.8
20260509033020 53 87 0.0 0.0 0.00 0.00 0.00 60 1012.8
20260509031517 53 87 0.0 0.0 0.00 0.00 0.00 59 1012.8
20260509030017 53 87 0.0 0.0 0.00 0.00 0.00 61 1012.8
20260509024509 53 87 0.0 0.0 0.00 0.00 0.00 63 1013.0
20260509023006 53 87 0.0 0.0 0.00 0.00 0.00 64 1013.1
20260509021502 54 87 0.0 0.0 0.00 0.00 0.00 65 1013.1
20260509020056 54 87 0.0 0.0 0.00 0.00 0.00 65 1013.3
20260509014553 55 87 0.0 0.0 0.00 0.00 0.00 64 1013.2
20260509013054 56 87 0.0 0.0 0.00 0.00 0.00 64 1013.1
20260509011544 57 87 0.0 0.0 0.00 0.00 0.00 64 1012.9
20260509010042 57 87 0.0 0.0 0.00 0.00 0.00 62 1012.8
20260509004538 58 87 0.0 0.0 0.00 0.00 0.00 60 1012.7
20260509003034 60 87 0.0 0.0 0.00 0.00 0.00 56 1012.7
20260509001532 61 87 0.0 0.0 0.00 0.00 0.00 54 1012.6
20260509000024 62 86 0.0 0.0 0.00 0.00 0.00 53 1012.4
20260508234525 63 87 0.0 0.0 0.00 0.00 0.00 55 1012.5
20260508233016 64 143 0.0 0.0 0.00 0.00 0.00 52 1012.7
20260508231512 64 250 0.0 0.0 0.00 0.00 0.00 57 1012.6
20260508230007 65 234 0.0 0.0 0.00 0.00 0.00 50 1012.4
20260508224508 65 349 0.0 0.0 0.00 0.00 0.00 52 1012.3
20260508223059 66 349 0.0 0.0 0.00 0.00 0.00 50 1012.4
20260508221555 67 232 0.0 0.0 0.00 0.00 0.00 48 1012.1
20260508220051 67 266 0.0 0.0 0.00 0.00 0.00 46 1012.1
20260508214559 67 261 0.0 1.0 0.00 0.00 0.00 44 1012.5
20260508213041 67 32 0.0 0.0 0.00 0.00 0.00 40 1012.2
20260508211536 67 293 0.0 1.0 0.00 0.00 0.00 36 1012.3
20260508210036 68 313 0.0 0.0 0.00 0.00 0.00 37 1012.4
20260508204527 68 316 0.0 1.0 0.00 0.00 0.00 37 1012.8
20260508203024 68 269 0.0 0.0 0.00 0.00 0.00 38 1012.9
20260508201520 67 69 0.0 0.0 0.00 0.00 0.00 38 1013.1
20260508200020 67 82 0.0 6.0 0.00 0.00 0.00 36 1013.1
20260508194510 67 88 0.0 0.0 0.00 0.02 0.00 34 1013.2
20260508193006 67 274 0.0 0.0 0.00 0.02 0.00 35 1013.5
20260508191502 67 38 0.0 1.0 0.00 0.02 0.00 35 1013.7
20260508190107 68 98 0.0 0.0 0.00 0.02 0.00 33 1013.9
20260508184558 68 347 0.0 1.0 0.00 0.02 0.00 36 1014.1
20260508183108 69 121 0.0 0.0 0.00 0.02 0.00 35 1014.2
20260508181544 69 167 0.0 0.0 0.00 0.02 0.00 33 1014.4
20260508180055 70 204 0.0 0.0 0.00 0.02 0.00 34 1014.7
20260508174543 70 342 0.0 0.0 0.00 0.03 0.00 34 1014.9
20260508173030 70 130 0.0 1.0 0.00 0.03 0.00 39 1015.1
20260508171527 69 49 0.0 0.0 0.00 0.03 0.00 37 1015.1
20260508170031 69 166 0.0 0.0 0.00 0.03 0.00 44 1015.4
20260508164524 68 355 0.0 0.0 0.00 0.08 0.00 39 1015.7
20260508163016 67 336 0.0 0.0 0.00 0.08 0.00 44 1016.1
20260508161511 66 129 0.0 1.0 0.00 0.08 0.00 43 1016.3
20260508160005 66 100 0.0 0.0 0.00 0.08 0.00 36 1016.5
20260508154601 65 169 0.0 0.0 0.00 0.08 0.00 46 1016.6
20260508153058 65 67 0.0 0.0 0.00 0.08 0.00 46 1016.7
20260508151552 65 327 0.0 0.0 0.00 0.08 0.00 55 1016.8
20260508150046 63 136 0.0 0.0 0.00 0.08 0.00 53 1016.9
20260508144548 62 323 0.0 0.0 0.00 0.08 0.00 61 1016.9
20260508143038 61 34 0.0 0.0 0.00 0.08 0.00 60 1016.9
20260508141535 59 265 0.0 0.0 0.00 0.08 0.00 63 1016.9
20260508140029 58 301 0.0 0.0 0.00 0.08 0.00 59 1016.8
20260508134524 56 271 0.0 0.0 0.00 0.09 0.00 1 1016.7
20260508133031 53 121 0.0 0.0 0.00 0.09 0.00 1 1016.7
20260508131516 53 132 0.0 0.0 0.00 0.09 0.00 1 1016.7
20260508130027 53 74 0.0 0.0 0.00 0.09 0.00 1 1016.6
20260508124507 51 316 0.0 0.0 0.00 0.13 0.00 1 1016.6
20260508123007 49 5 0.0 0.0 0.00 0.13 0.00 1 1016.6
20260508121609 46 88 0.0 0.0 0.00 0.13 0.00 1 1016.3
20260508120108 43 312 0.0 0.0 0.00 0.13 0.00 1 1016.1
20260508114557 41 331 0.0 0.0 0.00 0.14 0.00 1 1015.8
20260508113048 40 226 0.0 0.0 0.00 0.14 0.00 1 1015.7
20260508111542 40 257 0.0 0.0 0.00 0.14 0.00 1 1015.4
20260508110036 40 254 0.0 0.0 0.00 0.14 0.00 1 1015.2
20260508104535 40 258 0.0 0.0 0.00 0.14 0.00 1 1015.0
20260508103034 40 268 0.0 0.0 0.00 0.14 0.00 1 1014.8
20260508101523 41 287 0.0 0.0 0.00 0.14 0.00 1 1014.6
20260508100018 41 287 0.0 0.0 0.00 0.14 0.00 1 1014.4
20260508094515 42 195 0.0 0.0 0.00 0.14 0.00 1 1014.2
20260508093010 42 195 0.0 0.0 0.00 0.14 0.00 1 1014.0
20260508091511 42 195 0.0 0.0 0.00 0.14 0.00 1 1014.0
20260508090003 43 195 0.0 0.0 0.00 0.14 0.00 1 1013.8
20260508084559 43 195 0.0 0.0 0.00 0.14 0.00 1 1013.7